TimeCST,TemperatureF,Dew PointF,Humidity,Sea Level PressureIn,VisibilityMPH,Wind Direction,Wind SpeedMPH,Gust SpeedMPH,PrecipitationIn,Events,Conditions,WindDirDegrees,DateUTC
12:53 AM,45.0,43.0,93,30.30,4.0,ENE,4.6,-,N/A,,Clear,70,2011-11-24 06:53:00
1:53 AM,44.1,42.1,93,30.30,3.0,ENE,8.1,-,N/A,,Clear,70,2011-11-24 07:53:00
2:03 AM,44.6,42.8,93,30.30,3.0,ENE,6.9,-,N/A,,Scattered Clouds,70,2011-11-24 08:03:00
2:14 AM,44.6,42.8,93,30.30,3.0,ENE,5.8,-,N/A,,Mostly Cloudy,70,2011-11-24 08:14:00
2:28 AM,46.4,42.8,87,30.30,2.5,ENE,6.9,-,N/A,,Overcast,70,2011-11-24 08:28:00
2:39 AM,44.6,42.8,93,30.29,1.0,East,10.4,-,N/A,,Overcast,80,2011-11-24 08:39:00
2:46 AM,44.6,42.8,93,30.29,0.5,East,9.2,-,N/A,Fog,Fog,80,2011-11-24 08:46:00
3:25 AM,44.6,42.8,93,30.30,0.2,East,6.9,-,N/A,Fog,Fog,80,2011-11-24 09:25:00
3:53 AM,45.0,44.1,97,30.30,0.2,East,5.8,-,N/A,Fog,Fog,100,2011-11-24 09:53:00
4:05 AM,44.6,44.6,100,30.30,0.5,East,4.6,-,N/A,Fog,Fog,100,2011-11-24 10:05:00
4:53 AM,44.6,42.8,93,30.30,0.5,East,8.1,-,N/A,Fog,Fog,90,2011-11-24 10:53:00
5:31 AM,46.4,44.6,93,30.30,0.5,East,6.9,-,N/A,Fog,Fog,90,2011-11-24 11:31:00
5:43 AM,46.4,44.6,93,30.30,0.5,East,5.8,-,N/A,Fog,Fog,90,2011-11-24 11:43:00
5:53 AM,46.0,44.1,93,30.30,0.5,East,5.8,-,N/A,Fog,Fog,90,2011-11-24 11:53:00
6:19 AM,46.4,44.6,93,30.31,1.2,ESE,6.9,-,N/A,,Overcast,110,2011-11-24 12:19:00
6:49 AM,46.4,44.6,93,30.32,2.0,East,4.6,-,N/A,,Overcast,80,2011-11-24 12:49:00
6:53 AM,46.9,45.0,93,30.32,2.0,East,6.9,-,N/A,,Overcast,90,2011-11-24 12:53:00
7:06 AM,46.4,44.6,93,30.32,1.8,East,4.6,-,N/A,,Overcast,100,2011-11-24 13:06:00
7:17 AM,46.4,44.6,93,30.33,2.0,East,3.5,-,N/A,,Overcast,80,2011-11-24 13:17:00
7:27 AM,46.4,44.6,93,30.33,1.5,East,5.8,-,N/A,,Overcast,90,2011-11-24 13:27:00
7:53 AM,46.9,45.0,93,30.33,1.5,East,8.1,-,N/A,,Overcast,90,2011-11-24 13:53:00
8:53 AM,46.9,45.0,93,30.34,1.5,East,9.2,-,N/A,,Overcast,80,2011-11-24 14:53:00
9:00 AM,48.2,44.6,87,30.34,3.0,East,8.1,-,N/A,,Overcast,100,2011-11-24 15:00:00
9:53 AM,48.9,45.0,86,30.35,5.0,East,6.9,-,N/A,,Overcast,90,2011-11-24 15:53:00
10:32 AM,48.2,46.4,93,30.34,6.0,ESE,8.1,-,N/A,,Overcast,110,2011-11-24 16:32:00
10:53 AM,50.0,45.0,83,30.35,9.0,SE,6.9,-,N/A,,Overcast,140,2011-11-24 16:53:00
11:06 AM,50.0,44.6,82,30.34,10.0,East,9.2,-,N/A,,Overcast,100,2011-11-24 17:06:00
11:53 AM,52.0,46.0,80,30.31,10.0,East,6.9,-,N/A,,Overcast,100,2011-11-24 17:53:00
12:31 PM,55.4,46.4,72,30.29,10.0,ENE,8.1,-,N/A,,Scattered Clouds,60,2011-11-24 18:31:00
12:53 PM,55.0,46.9,74,30.28,10.0,NNE,10.4,-,N/A,,Partly Cloudy,30,2011-11-24 18:53:00
1:53 PM,57.0,46.9,69,30.25,10.0,NE,10.4,-,N/A,,Clear,50,2011-11-24 19:53:00
2:53 PM,57.9,48.0,70,30.24,10.0,NNE,11.5,-,N/A,,Clear,30,2011-11-24 20:53:00
3:53 PM,57.2,48.2,72,30.23,10.0,NE,10.4,-,N/A,,Clear,50,2011-11-24 21:53:00
4:53 PM,55.0,46.9,74,30.22,10.0,ENE,9.2,-,N/A,,Clear,60,2011-11-24 22:53:00
5:53 PM,53.1,46.0,77,30.21,10.0,East,10.4,-,N/A,,Clear,90,2011-11-24 23:53:00
6:53 PM,51.1,45.0,80,30.20,9.0,East,6.9,-,N/A,,Clear,90,2011-11-25 00:53:00
7:53 PM,48.9,45.0,86,30.21,7.0,East,6.9,-,N/A,,Clear,80,2011-11-25 01:53:00
8:53 PM,48.0,44.1,86,30.22,6.0,East,4.6,-,N/A,,Clear,80,2011-11-25 02:53:00
9:53 PM,46.9,44.1,90,30.20,6.0,East,8.1,-,N/A,,Clear,80,2011-11-25 03:53:00
10:53 PM,46.4,44.6,93,30.19,7.0,NE,6.9,-,N/A,,Clear,50,2011-11-25 04:53:00
11:53 PM,45.0,42.1,90,30.20,6.0,ENE,5.8,-,N/A,,Clear,60,2011-11-25 05:53:00